[Date Prev][Date Next][Thread Prev][Thread Next] - [Date Index][Thread Index][Author Index]

2 Line ISS Keps 2-5



ISS 
1 25544U 98067A   02036.17457176  .00064456  00000-0  78161-3 0   384
2 25544  51.6392 356.6004 0006043  37.5381 154.5249 15.59994109183433


----
Via the sarex mailing list at AMSAT.ORG courtesy of AMSAT-NA.
To unsubscribe, send "unsubscribe sarex" to Majordomo@amsat.org



AMSAT Top AMSAT Home